Regional Weather Roundup
Issued by NWS Newport/Morehead, NC

Current Version | Previous Version | Graphics & Text | Print | Product List | Glossary On
Versions: 1 2 3 4 5 6 7 8 9 10 11 12 13 14 15 16 17 18 19 20 21 22 23 24 25 26 27 28 29 30 31 32 33 34 35 36 37 38 39 40 41 42 43 44 45 46 47 48 49 50
000 ASUS42 KMHX 261414 RWRMHX WEATHER ROUNDUP FOR EASTERN NORTH CAROLINA NATIONAL WEATHER SERVICE NEWPORT/MOREHEAD CITY NC 1000 AM EDT WED JUL 26 2017 NOTE: "FAIR" INDICATES FEW OR NO CLOUDS BELOW 12,000 FEET WITH NO SIGNIFICANT WEATHER AND/OR OBSTRUCTIONS TO VISIBILITY NCZ015>017-031-032-045>047-102-103-261500- NORTH COAST CITY SKY/WX TMP DP RH WIND PRES REMARKS EDENTON PTSUNNY 80 71 75 CALM 30.19R ELIZABETH CITY MOSUNNY 79 69 71 NE9 30.19R KITTY HAWK SUNNY 78 66 67 E8 30.17R MANTEO SUNNY 78 67 69 E15 30.18R $$ NCZ045>047-081-094-103-104-261500- CENTRAL COAST CITY SKY/WX TMP DP RH WIND PRES REMARKS FRISCO CLOUDY 79 67 66 E8G18 30.16R $$ NCZ095-097-098-100-101-261500- SOUTHERN COAST CITY SKY/WX TMP DP RH WIND PRES REMARKS BEAUFORT PTSUNNY 83 74 74 NE10 30.14S CEDAR ISLAND NOT AVBL JACKSONVILLE CLOUDY 79 73 82 NE7 30.15R PINEY ISLAND CLOUDY N/A N/A N/A NE12 30.14S WILMINGTON PTSUNNY 80 70 71 NE10 30.14R $$ NCZ011>013-027>030-043-044-078>080-089-090>093-098-261500- COASTAL PLAIN CITY SKY/WX TMP DP RH WIND PRES REMARKS AHOSKIE N/A 75 70 82 E3 30.20R CLINTON PTSUNNY 80 70 73 NE7 30.17S ELIZABETHTOWN NOT AVBL GOLDSBORO MOSUNNY 79 72 78 NE10 30.17R GREENVILLE MOSUNNY 79 68 69 E7 30.19S HAVELOCK CLOUDY 82 71 69 NE13 30.15S KENANSVILLE PTSUNNY 77 70 78 NE5 30.17S KINSTON NOT AVBL NEW BERN CLOUDY 80 73 79 NE8 30.17S RICHLANDS CLOUDY 76 71 85 NE6 30.17R ROCKY MOUNT SUNNY 79 69 71 VRB3 30.20R WASHINGTON MOSUNNY 78 69 73 E7 30.18R WHITEVILLE PTSUNNY 79 71 77 NE6 30.13F $$ AMZ130-135-150-152-154-156-158-170-250-252-270-ANZ085-086-088-633-658-670-261500- MARINE OBSERVATIONS STATION/POSITION TIME TEMP WIND PRES WAVE SWELL AIR SEA DIR/SP/G HT/PER HT/PER (UTC) (F) (DEG/KT/KT) (MB) (FT/S) (FT/S) CHESAPEAKE LIGHT NOT AVBL 64 E VA BEACH 1350 75 78 70/ 10/ 12 1022.3 4/ 6 3/ 6 DUCK 1336 76 75 80/ 10/ 11 1021.5 2 E DUCK 1400 74 N/A 4/ 7 OREGON INLET 1348 60/ 10/ 13 N/A 13E OREGON INLT 1348 77 N/A 4/ 6 3/ 6 HATTERAS CG 1336 78 77 60/ 10/ 14 1021.0 DIAMOND BUOY 1350 81 83 50/ 14/ 16 1020.2 3/10 2/10 CAPE LOOKOUT 1400 78 40/ 16/ 17 1020.3 BEAUFORT LAB 1336 80 79 40/ 8/ 9 1020.0 30 SE NEW RVR IN NOT AVBL 30 SE NEW RVR IN 1343 84 N/A 4/ 5 2/25 27 SE WRIGHTSVLE 1308 82 82 80/ 14/ 19 1019.5 5 SE WRIGHTSVLE NOT AVBL 225 S CAPE HAT 1350 82 83 170/ 4/ 6 1019.2 3/10 3/10 41 SE CHARLESTON 1400 80 83 190/ 14/ 16 1018.5 $$

USA.gov is the U.S. government's official web portal to all federal, state and local government web resources and services.